User: anonymous   Login
Location: Caltech
(34.1382°N, 118.1253°W)
Time: 01:06:50
(UTC-07:00)
Language:

Cosmos 1606 - Orbit

View from above orbital plane
View from above orbital plane
View from above satellite
View from above satellite

Ground track
Ground track

The orbit data is extracted from the following two-line orbital elements,

1 15369U 84111A   15176.54810553  .00002397  00000-0  13212-3 0  9993
2 15369 082.5298 112.4528 0017482 237.8893 122.0642 15.13412682671065
Epoch (UTC): 25 June 2015 13:09:16
Eccentricity: 0.0017482
inclination: 82.5298°
perigee height: 514 km
apogee height: 538 km
right ascension of ascending node: 112.4528°
argument of perigee: 237.8893°
revolutions per day: 15.13412682
mean anomaly at epoch: 122.0642°
orbit number at epoch: 67106

The dashed part of the orbit path shows where the satellite is in the earth's shadow,  

DLR